Location: Moscow
(55.7500°N, 37.5830°E)
Time: 19:06:39
(UTC+03:00)

ISS - Pass Details

Date: 23 May 2021
Orbit: 417 x 422 km, 51.6° (Epoch: 16 June)

Event Time Altitude Azimuth Distance (km) Brightness Sun altitude
Rises 23:13:35 0° 273° (W) 2,370 0.3 -12.0°
Reaches altitude 10° 23:15:58 10° 258° (WSW) 1,504 -0.9 -12.1°
Maximum altitude 23:18:40 22° 205° (SSW) 964 -2.4 -12.2°
Enters shadow 23:19:30 20° 182° (S) 1,029 -2.4 -12.2°
